ASTROCAST-0202 (48961 NORAD) Tracking and Keplerian Element Data

This shows tracking and keplerian element data for the satellite.

Feedback or suggestion? Click here.




ElementValue
Catalog48961
NameASTROCAST-0202
Epoch Orbit515
Epoch Day210.86205103
Epoch Year2021
RAAN339.281
Inclination97.5159
Eccentricity0.0016216
Argument of Perigee130.5035
Mean Anonmoly229.7613
Mean Motion15.14390656
Decay Rate1.51E-05
L11 48961U 21059CL 21210.86205103 .00001510 00000-0 85637-4 0 9996
L22 48961 97.5159 339.2810 0016216 130.5035 229.7613 15.14390656 5156

Live tracking and technical data element details for ASTROCAST-0202 (NORAD 48961). ASTROCAST-0202 can be tracked NOW for your location showing map with azimuth and elevation plus other details from your city location.

Track the satellite on the map from your city or location and see movement details for azimuth, elevation, latitude, longitude, range, height, and movement on the map or in text.







IsCatalogInMostPopularTable: catalog: 48961, numindb: 1
Update: records affected: 1



GetName: 48961 ASTROCAST-0202

Hit Count: updated at: Sat, 31 Jul 2021 16:28:59 GMT